Location: ??????????
(48.4699°N, 37.9573°E)
Time: 12:59:22
(UTC+00:00)

Cosmos 1538 Rocket - Pass Details

Date: 20 January 2021
Orbit: 753 x 791 km, 74.0° (Epoch: 27 February)

Event Time Altitude Azimuth Distance (km) Brightness Sun altitude
Rises 15:27:15 0° 337° (NNW) 3,221 7.3 -12.9°
Reaches altitude 10° 15:29:38 10° 339° (NNW) 2,289 6.5 -13.3°
Maximum altitude 15:34:49 81° 66° (ENE) 768 3.9 -14.1°
Drops below altitude 10° 15:39:59 10° 155° (SSE) 2,274 6.3 -14.9°
Sets 15:42:20 0° 156° (SSE) 3,197 7.1 -15.3°
